Content
SEND FEEDBACK

Daily
Averages
Monthly
Summary
Canada

VANCOUVER, BRITISH COLUMBIA


Home > North America > Canada > British Columbia
Elevation: 7 feet     Latitude: 49 11N     Longitude: 123 10W

WEATHER
 
SELECT A DAY
Number of Records: 252,242;   Date Range: 5/15/97 - 9/30/14
 
SHARE

PRINT THIS DATA

[ ← Previous Day ]
WEATHER ALMANAC - MAY 22, 2013
[ Next Day → ]
[ °C ]   °F
Weather ElementAverageHighLow
Temperature51 °F59 °F (5:35 pm)46.4 °F (1:35 am)
Dewpoint45.1 °F46.4 °F (2:55 am)42.8 °F (9:15 am)
Humidity81.1 %100 % (10:35 pm)59 % (5:35 pm)
Barometer29.86 in29.94 in (10:55 pm)29.83 in (12:35 am)
Wind Speed4.1 mph15 mph (8:35 pm)
Wind Gust19.6 mph (8:35 pm)
Weather ElementAverage
Visibility9.3 mi
Wind DirectionESE (123.7 °)

Weather ElementTotal
Precipitation0.26 in
Heating Degree Days12.3 (Base 65)
Growing Degree Days2.7 (Base 50)
Averaged from 71 records on May 22, 2013
WEATHER CONDITIONS BREAKOUT
WIND DIRECTION BREAKOUT
WEATHER BY HOUR - MAY 22, 2013
[ °C ]   °F
Local TimeTemperatureDewpointHumidityBarometerVisibilityWind DirectionWind SpeedGust SpeedPrecipitationEventsConditions
12:35 AM48.2 °F44.6 °F87 %29.83 in10.0 miSouth (190°)3.5 mphMostly Cloudy
12:55 AM48.2 °F44.6 °F87 %29.83 in10.0 miSSW (200°)4.6 mphScattered Clouds
1:15 AM48.2 °F44.6 °F87 %29.83 in10.0 miSSW (200°)5.8 mphMostly Cloudy
1:35 AM46.4 °F44.6 °F93 %29.83 in10.0 miCalmPartly Cloudy
1:55 AM46.4 °F44.6 °F93 %29.84 in10.0 miCalmPartly Cloudy
2:15 AM46.4 °F44.6 °F93 %29.84 in10.0 miCalmMostly Cloudy
2:35 AM46.4 °F44.6 °F93 %29.84 in10.0 miCalmOvercast
2:55 AM48.2 °F46.4 °F93 %29.85 in10.0 miSSW (200°)5.8 mphOvercast
3:15 AM48.2 °F44.6 °F87 %29.85 in10.0 miSSW (200°)8.1 mphMostly Cloudy
3:35 AM48.2 °F44.6 °F87 %29.84 in10.0 miSouth (190°)8.1 mphPartly Cloudy
3:55 AM46.4 °F44.6 °F93 %29.84 in10.0 miSouth (180°)3.5 mphClear
4:15 AM46.4 °F44.6 °F93 %29.85 in10.0 miNorthScattered Clouds
4:35 AM48.2 °F44.6 °F87 %29.85 in10.0 miSouth (180°)4.6 mphMostly Cloudy
4:55 AM48.2 °F46.4 °F93 %29.85 in10.0 miSouth (190°)5.8 mphMostly Cloudy
5:15 AM48.2 °F46.4 °F93 %29.84 in10.0 miCalmOvercast
5:35 AM48.2 °F46.4 °F93 %29.85 in10.0 miCalmOvercast
5:55 AM48.2 °F46.4 °F93 %29.85 in10.0 miNorthOvercast
6:15 AM48.2 °F46.4 °F93 %29.84 in10.0 miSouth (190°)3.5 mphOvercast
6:35 AM48.2 °F46.4 °F93 %29.83 in9.0 miSSW (200°)5.8 mphOvercast
6:55 AM48.2 °F46.4 °F93 %29.84 in9.0 miSouth (190°)4.6 mphMostly Cloudy
7:15 AM48.2 °F46.4 °F93 %29.84 in10.0 miSSW (200°)6.9 mphOvercast
7:35 AM48.2 °F46.4 °F93 %29.84 in9.0 miSouth (190°)4.6 mphMostly Cloudy
7:55 AM50.0 °F46.4 °F87 %29.84 in9.0 miSSW (200°)6.9 mphScattered Clouds
8:15 AM50.0 °F46.4 °F87 %29.84 in9.0 miSouth (170°)3.5 mphClear
8:35 AM51.8 °F44.6 °F76 %29.84 in10.0 miCalmPartly Cloudy
8:55 AM51.8 °F44.6 °F76 %29.84 in10.0 miCalmMostly Cloudy
9:15 AM53.6 °F42.8 °F67 %29.84 in10.0 miCalmPartly Cloudy
9:35 AM50.0 °F44.6 °F82 %29.85 in9.0 miNNW (340°)5.8 mphScattered Clouds
9:55 AM51.8 °F46.4 °F82 %29.85 in10.0 miNNE (20°)3.5 mphScattered Clouds
10:15 AM53.6 °F44.6 °F72 %29.85 in9.0 miCalmPartly Cloudy
10:35 AM53.6 °F44.6 °F72 %29.85 in10.0 miNNE (20°)4.6 mphClear
10:55 AM53.6 °F44.6 °F72 %29.84 in9.0 miNorth (350°)4.6 mphPartly Cloudy
11:15 AM51.8 °F44.6 °F76 %29.84 in10.0 miNorth (10°)5.8 mphClear
11:35 AM53.6 °F44.6 °F72 %29.85 in10.0 miNorth (350°)4.6 mphScattered Clouds
11:55 AM53.6 °F44.6 °F72 %29.85 in10.0 miNorth (360°)4.6 mphMostly Cloudy
12:15 PM53.6 °F44.6 °F72 %29.85 in10.0 miCalmMostly Cloudy
12:35 PM53.6 °F44.6 °F72 %29.86 in10.0 miCalmMostly Cloudy
12:55 PM53.6 °F44.6 °F72 %29.86 in10.0 miNNE (30°)4.6 mphMostly Cloudy
1:15 PM53.6 °F44.6 °F72 %29.86 in10.0 miCalmMostly Cloudy
1:35 PM55.4 °F46.4 °F72 %29.85 in9.0 miNorth (10°)4.6 mphScattered Clouds
1:55 PM53.6 °F44.6 °F72 %29.85 in10.0 miNorth (360°)4.6 mphPartly Cloudy
2:15 PM53.6 °F44.6 °F72 %29.86 in10.0 miCalmPartly Cloudy
2:35 PM55.4 °F44.6 °F67 %29.86 in10.0 miCalmPartly Cloudy
2:55 PM55.4 °F44.6 °F67 %29.87 in10.0 miCalmPartly Cloudy
3:15 PM55.4 °F44.6 °F67 %29.87 in10.0 miCalmRainLight Rain
3:35 PM55.4 °F46.4 °F72 %29.87 in10.0 miSSW (200°)8.1 mphPartly Cloudy
3:55 PM55.4 °F44.6 °F67 %29.86 in10.0 miSouth (190°)5.8 mphClear
4:15 PM55.4 °F44.6 °F67 %29.86 in10.0 miSouth (170°)3.5 mphClear
4:35 PM55.4 °F44.6 °F67 %29.86 in10.0 miCalmClear
4:55 PM57.2 °F46.4 °F67 %29.87 in10.0 miSouth (180°)4.6 mphClear
5:15 PM57.2 °F44.6 °F63 %29.86 in10.0 miSouth (190°)3.5 mphClear
5:35 PM59.0 °F44.6 °F59 %29.85 in10.0 miCalmMostly Cloudy
5:55 PM57.2 °F44.6 °F63 %29.86 in10.0 miSSW (200°)4.6 mphMostly Cloudy
6:15 PM55.4 °F44.6 °F67 %29.87 in10.0 miSouth (190°)8.1 mphMostly Cloudy
6:35 PM55.4 °F44.6 °F67 %29.88 in10.0 miSouth (180°)4.6 mphMostly Cloudy
6:55 PM55.4 °F44.6 °F67 %29.88 in9.0 miSouth (170°)4.6 mphMostly Cloudy
7:15 PM53.6 °F44.6 °F72 %29.88 in10.0 miSouth (170°)5.8 mphMostly Cloudy
7:35 PM53.6 °F44.6 °F72 %29.88 in10.0 miSouth (170°)5.8 mphMostly Cloudy
7:55 PM53.6 °F44.6 °F72 %29.89 in10.0 miSouth (180°)9.2 mphOvercast
8:15 PM50.0 °F46.4 °F87 %29.90 in6.0 miSouth (180°)10.4 mph17.3 mphRainLight Rain
8:35 PM50.0 °F44.6 °F82 %29.89 in8.0 miSouth (190°)15.0 mph19.6 mphRainLight Rain
8:55 PM48.2 °F46.4 °F93 %29.89 in7.0 miSouth (190°)11.5 mphRainLight Rain
9:15 PM48.2 °F44.6 °F87 %29.90 in8.0 miSouth (180°)10.4 mph16.1 mphRainLight Rain
9:35 PM48.2 °F44.6 °F87 %29.92 in5.0 miSouth (180°)8.1 mphRainRain
9:55 PM48.2 °F44.6 °F87 %29.92 in5.0 miSouth (180°)6.9 mph0.03 inRainRain
10:15 PM46.4 °F44.6 °F93 %29.93 in5.0 miSouth (190°)6.9 mph0.04 inRainRain
10:35 PM46.4 °F46.4 °F100 %29.93 in4.0 miSouth (180°)5.8 mph0.09 inRainRain
10:55 PM46.4 °F46.4 °F100 %29.94 in5.0 miSSW (200°)4.6 mph0.10 inRainLight Rain
11:15 PM46.4 °F46.4 °F100 %29.93 in8.0 miCalmRainLight Rain
11:35 PM46.4 °F44.6 °F93 %29.92 in10.0 miCalmRainLight Rain
11:55 PM46.4 °F46.4 °F100 %29.92 in10.0 miCalmClear
Hourly data recorded from CZBB, located miles away from Vancouver, British Columbia







STORIES FROM OUR PARTNERS